Regional Weather Roundup
Issued by NWS Midland/Odessa, TX

Skip options and go directly to product.
Home | Oldest Version | Next Version | Current Version | All | Text Only | Save Text | Print | Product List | Glossary On

Skip product version selection by date and time.   
430
ASUS44 KMAF 030901
RWRMAF
MIDLAND AREA WEATHER ROUNDUP
NATIONAL WEATHER SERVICE MIDLAND TX
400 AM CDT MON AUG 03 2015

...IN SOUTHWEST TEXAS AND SOUTHEAST NEW MEXICO...

CITY           SKY/WX    TMP DP  RH WIND       PRES   REMARKS
ALPINE         CLEAR     72  57  59 CALM      30.11S
ANDREWS        FAIR      75  65  69 S7        29.97R
ARTESIA        PTCLDY    75  59  57 W6        30.00S
BIG SPRING     MOCLDY    78  60  54 S14       29.96S
CARLSBAD       MOCLDY    80  60  50 N3        29.96F
DRYDEN           N/A     81  57  43 W3        29.91F
FORT STOCKTON  CLEAR     78  57  48 S14       29.95S
GUAD PASS      CLOUDY    71  56  58 S5        30.14F
HOBBS            N/A    N/A N/A N/A MISG        N/A
MARFA          PTCLDY    64  59  82 NE3       30.11S
MIDLAND AIRPK  MOCLDY    84  58  41 S10       29.95S
MIDLAND INTL   MOCLDY    83  59  44 S10       29.94F
ODESSA         MOCLDY    83  57  41 S16       29.95F
PECOS          CLEAR     79  57  47 E6        29.91S
PRESIDIO       FAIR      85  56  36 E8        29.92F
SEMINOLE       MOCLDY    75  62  63 CALM      29.99R
SNYDER         PTCLDY    77  61  59 SE6       29.93F
WINK           PTCLDY    77  64  64 SE6       29.92F
$$
...OTHER STATIONS IN TEXAS...

CITY           SKY/WX    TMP DP  RH WIND       PRES   REMARKS
ABILENE        MOCLDY    78  59  51 SE10      29.91S
AMARILLO       CLOUDY    67  65  93 S9        30.00F
AUSTIN         CLEAR     71  68  90 CALM      29.89S
BROWNSVILLE    PTCLDY    77  75  93 S5        29.85F
CORPUS CHRISTI PTCLDY    76  74  93 CALM      29.86S
DALLAS FTW     MOCLDY    80  59  48 S6        29.87S
DEL RIO        CLEAR     80  62  54 E6        29.88R
EL PASO        MOCLDY    74  64  71 S6        30.00F
HOUSTON INT    CLEAR     76  71  85 CALM      29.88R
LUBBOCK        MOCLDY    75  63  66 NW18      30.00F
SAN ANGELO     CLEAR     78  60  53 S5        29.92R
SAN ANTONIO    PTCLDY    78  70  76 S6        29.91R
WACO           CLEAR     80  65  59 S9        29.88R
WICHITA FALLS  NOT AVBL
$$
...OTHER LOCATIONS IN NEW MEXICO...

CITY           SKY/WX    TMP DP  RH WIND       PRES   REMARKS
ALAMAGORDO     MOCLDY    73  61  64 NE7       30.04F
ALBUQUERQUE    MOCLDY    67  59  75 NE10      30.13F
CANNON AFB     MOCLDY    69  64  85 SE8       30.05S
CLOVIS         CLOUDY    70  63  78 SE9       30.06F
HOLLOMAN AFB   MOCLDY    73  64  73 N3        30.01F
ROSWELL        PTCLDY    76  59  55 NW9       29.99S
RUIDOSO          N/A    N/A N/A N/A MISG        N/A
SANTA FE       CLOUDY    62  57  83 NE6       30.22F
TRUTH OR CONSE LGT RAIN  71  61  70 NE5       30.11S
TUCUMCARI      CLOUDY    68  66  93 CALM      30.05R
$$

USA.gov is the U.S. government's official web portal to all federal, state and local government web resources and services.